{"data":{"norad_id":64863,"epoch":"2026-05-25T03:12:18.764064Z","epoch_age_seconds":66668,"freshness":"FRESH","line1":"1 64863U 25152X   26145.13355051  .00002682  00000+0  18982-3 0  9991","line2":"2 64863  97.4495   0.5402 0002310  78.6076 281.5410 15.05655102 46920","mean_motion":15.05655102,"eccentricity":0.000231,"inclination_deg":97.4495,"raan_deg":0.5402,"arg_perigee_deg":78.6076,"mean_anomaly_deg":281.541,"bstar":0.00018982,"rev_number":4692,"period_min":95.639432834732,"perigee_km":547.89522109565,"apogee_km":551.09578731259,"semimajor_km":6927.6325042041,"source":"CELESTRAK","updated_at":"2026-05-25T13:38:20.617580Z"}}